Concordia, KS

7:09 AM CST on December 08, 2019 (GMT -0600)
Blosser Municipal

Weather History for KCNK - October, 2019

Change the Weather History Date:

Saturday, October 5, 2019

  Actual Average Record
Temperature  
Mean Temperature 61 °F 60 °F  
Max Temperature 72 °F 72 °F 102 °F (1947)
Min Temperature 50 °F 48 °F 32 °F (1932)
Degree Days  
Heating Degree Days 4 7  
Month to date heating degree days 31 32  
Since 1 July heating degree days 34 105  
Cooling Degree Days 0 1  
Month to date cooling degree days 6 9  
Year to date cooling degree days 1654 1335  
Growing Degree Days 13 (Base 50)    
Moisture  
Dew Point 54 °F    
Average Humidity 66    
Maximum Humidity 93    
Minimum Humidity 38    
Precipitation  
Precipitation 0.07 in 0.07 in 1.94 in (1959)
Month to date precipitation 1.01 0.39  
Year to date precipitation 32.03 24.40  
Snow  
Snow 0.00 in 0.00 in 0.00 in ()
Month to date snowfall 0.0 0.0  
Year to date snowfall 32.3 13.7  
Since 1 July snowfall 0.0 0.0  
Snow Depth 0.00 in    
Sea Level Pressure  
Sea Level Pressure 29.94 in    
Wind  
Wind Speed 12 mph (SW)    
Max Wind Speed 29 mph    
Max Gust Speed 42 mph    
Visibility 10 miles    
Events Rain    
T = Trace of Precipitation, MM = Missing Value Source: NWS Daily Summary

Daily Weather History Graph

Daily Weather History Graph

Search for Another Location

Airport or City:

Astronomy

Oct. 05, 2019 Rise Set
Actual Time 7:30 AM CDT 7:06 PM CDT
Civil Twilight 7:03 AM CDT 7:33 PM CDT
Nautical Twilight 6:32 AM CDT 8:04 PM CDT
Astronomical Twilight 6:01 AM CDT 8:36 PM CDT
Moon 2:55 PM CDT (10/5) No Moon Set
Length of Visible Light 12h 30m
Length of Day
11h 36m
Waxing Crescent, 50% of the Moon is Illuminated
Oct 5
Waxing Crescent
Oct 13
Full
Oct 21
Last Quarter
Oct 27
New
Nov 4
First Quarter

Hourly Weather History & Observations

Time (CDT) Temp. Dew Point Humidity Pressure Visibility Wind Dir Wind Speed Gust Speed Precip Events Conditions
12:06 AM 57.0 °F 54.0 °F 89% 29.98 in 10.0 mi SE 13.8 mph - 0.01 in Rain Light Rain
12:55 AM 57.9 °F 55.0 °F 90% 29.96 in 10.0 mi SE 11.5 mph - 0.01 in Rain Light Rain
1:55 AM 59.0 °F 55.9 °F 90% 29.94 in 10.0 mi SE 12.7 mph - 0.00 in   Overcast
2:44 AM 60.1 °F 55.9 °F 86% 29.94 in 10.0 mi SSE 12.7 mph - N/A   Overcast
2:55 AM 60.1 °F 57.0 °F 90% 29.93 in 9.0 mi SE 9.2 mph - 0.01 in Rain Light Rain
3:55 AM 62.1 °F 57.9 °F 86% 29.88 in 10.0 mi SSE 17.3 mph 24.2 mph 0.03 in   Overcast
4:26 AM 63.0 °F 60.1 °F 90% 29.88 in 10.0 mi South 15.0 mph 26.5 mph N/A   Overcast
4:55 AM 63.0 °F 60.1 °F 90% 29.85 in 10.0 mi South 16.1 mph 25.3 mph N/A   Overcast
5:23 AM 64.0 °F 62.1 °F 93% 29.86 in 10.0 mi South 15.0 mph 25.3 mph N/A   Overcast
5:55 AM 66.0 °F 64.0 °F 93% 29.85 in 9.0 mi South 13.8 mph 23.0 mph N/A   Overcast
6:25 AM 66.9 °F 64.9 °F 93% 29.87 in 8.0 mi SSW 16.1 mph - N/A   Overcast
6:52 AM 69.8 °F 66.2 °F 88% 29.87 in 8.0 mi SSW 17.3 mph 27.6 mph 0.01 in Rain Light Rain
7:02 AM 70.0 °F 66.9 °F 90% 29.87 in 8.0 mi SW 19.6 mph 31.1 mph 0.01 in Rain Light Rain
7:23 AM 70.0 °F 66.0 °F 87% 29.86 in 10.0 mi SW 16.1 mph - 0.01 in   Overcast
7:55 AM 70.0 °F 66.0 °F 87% 29.84 in 10.0 mi SW 16.1 mph 25.3 mph 0.02 in   Overcast
8:55 AM 70.0 °F 64.9 °F 84% 29.86 in 10.0 mi West 15.0 mph 21.9 mph N/A   Overcast
9:08 AM 70.0 °F 64.9 °F 84% 29.88 in 10.0 mi WSW 12.7 mph - N/A   Overcast
9:55 AM 66.9 °F 46.0 °F 47% 29.92 in 10.0 mi NNW 23.0 mph 41.4 mph N/A   Partly Cloudy
10:55 AM 68.0 °F 45.0 °F 43% 29.94 in 10.0 mi NW 18.4 mph 28.8 mph N/A   Clear
11:55 AM 70.0 °F 45.0 °F 41% 29.96 in 10.0 mi NW 24.2 mph 41.4 mph N/A   Clear
12:55 PM 70.0 °F 45.0 °F 41% 29.99 in 10.0 mi NW 23.0 mph 33.4 mph N/A   Clear
1:55 PM 70.0 °F 45.0 °F 41% 29.98 in 10.0 mi NNW 18.4 mph 27.6 mph N/A   Clear
3:55 PM 71.1 °F 44.1 °F 38% 29.96 in 10.0 mi NNW 13.8 mph 24.2 mph N/A   Clear
4:55 PM 71.1 °F 44.1 °F 38% 29.97 in 10.0 mi NNW 10.4 mph - N/A   Clear
5:55 PM 70.0 °F 44.1 °F 39% 29.98 in 10.0 mi NNW 10.4 mph - N/A   Clear
6:55 PM 66.0 °F 45.0 °F 47% 29.98 in 10.0 mi Calm Calm - N/A   Clear
7:55 PM 61.0 °F 45.0 °F 56% 30.01 in 10.0 mi WNW 3.5 mph - N/A   Clear
8:55 PM 57.0 °F 46.0 °F 67% 30.03 in 8.0 mi NW 4.6 mph - N/A   Clear
9:55 PM 57.0 °F 44.1 °F 62% 30.04 in 10.0 mi Calm Calm - N/A   Clear
10:55 PM 55.0 °F 44.1 °F 67% 30.05 in 10.0 mi Calm Calm - N/A   Clear
11:55 PM 53.1 °F 42.1 °F 66% 30.05 in 10.0 mi SSE 3.5 mph - N/A   Clear